Location: El Atico
(3.0014°N, 75.4378°W)
Time: 12:32:35
(UTC+00:00)

CZ-4 R/B - Pass Details

Date: 09 December 2025
Orbit: 548 x 553 km, 97.6° (Epoch: 25 January)

Event Time Altitude Azimuth Distance (km) Brightness Sun altitude
Rises 23:28:08 0° 164° (SSE) 2,720 8.0 -8.9°
Reaches altitude 10° 23:30:16 10° 162° (SSE) 1,823 7.0 -9.4°
Maximum altitude 23:34:11 68° 79° (E) 592 4.2 -10.3°
Drops below altitude 10° 23:38:05 10° 356° (N) 1,813 6.8 -11.2°
Sets 23:40:12 0° 353° (N) 2,703 7.7 -11.7°
